Lewiston, WA

10:33 AM PDT on April 23, 2018 (GMT -0700)
Lewiston-Nez Perce County

Weather History for KLWS - June, 2012

Change the Weather History Date:

Thursday, June 21, 2012

  Actual Average Record
Temperature  
Mean Temperature 77 °F 67 °F  
Max Temperature 95 °F 80 °F 103 °F (1973)
Min Temperature 59 °F 54 °F 43 °F (1960)
Degree Days  
Heating Degree Days 0 2  
Month to date heating degree days 66 59  
Since 1 June heating degree days 66 59  
Since 1 July heating degree days 4973 5156  
Cooling Degree Days 12 4  
Month to date cooling degree days 38 53  
Year to date cooling degree days 65 85  
Since 1 June cooling degree days 38 53  
Growing Degree Days 27 (Base 50)    
Moisture  
Dew Point 47 °F    
Average Humidity 38    
Maximum Humidity 60    
Minimum Humidity 15    
Precipitation  
Precipitation 0.00 in 0.04 in 1.27 in (1967)
Month to date precipitation 1.27 0.95  
Year to date precipitation 9.86 6.89  
Snow  
Snow 0.00 in 0.00 in T in (1930)
Month to date snowfall 0.0 0.0  
Since 1 June snowfall 0.0 0.0  
Since 1 July snowfall 13.5 10.5  
Snow Depth 0.00 in    
Sea Level Pressure  
Sea Level Pressure 29.74 in    
Wind  
Wind Speed 7 mph (East)    
Max Wind Speed 13 mph    
Max Gust Speed 17 mph    
Visibility 10 miles    
Events      
T = Trace of Precipitation, MM = Missing Value Source: NWS Daily Summary

Daily Weather History Graph

Daily Weather History Graph

Search for Another Location

Airport or City:

Astronomy

Jun. 21, 2012 Rise Set
Actual Time 4:55 AM PDT 8:44 PM PDT
Civil Twilight 4:16 AM PDT 9:23 PM PDT
Nautical Twilight 3:23 AM PDT 10:16 PM PDT
Astronomical Twilight 2:07 AM PDT 11:32 PM PDT
Moon 7:05 AM PDT (6/21) 10:00 PM PDT (6/21)
Length of Visible Light 17h 06m
Length of Day
15h 48m
Waxing Crescent, 5% of the Moon is Illuminated
Jun 21
Waxing Crescent
Jun 26
First Quarter
Jul 3
Full
Jul 10
Last Quarter
Jul 18
New

Hourly Weather History & Observations

Time (PDT) Temp. Dew Point Humidity Pressure Visibility Wind Dir Wind Speed Gust Speed Precip Events Conditions
12:56 AM 66.0 °F 46.0 °F 48% 29.90 in 10.0 mi Calm Calm - N/A   Clear
1:56 AM 60.8 °F 46.4 °F 59% 29.92 in 10.0 mi SE 6.9 mph - N/A   Clear
2:56 AM 63.0 °F 46.0 °F 54% 29.89 in 10.0 mi East 4.6 mph - N/A   Clear
3:56 AM 60.1 °F 46.9 °F 62% 29.89 in 10.0 mi ESE 6.9 mph - N/A   Clear
4:56 AM 60.1 °F 46.9 °F 62% 29.88 in 10.0 mi ESE 5.8 mph - N/A   Clear
5:56 AM 60.1 °F 46.9 °F 62% - 10.0 mi ESE 5.8 mph - N/A   Clear
6:56 AM 62.1 °F 48.0 °F 60% - 10.0 mi ESE 5.8 mph - N/A   Clear
7:56 AM 66.9 °F 48.0 °F 51% 29.88 in 10.0 mi ENE 8.1 mph - N/A   Clear
8:56 AM 72.0 °F 48.0 °F 43% 29.87 in 10.0 mi ENE 8.1 mph - N/A   Clear
9:56 AM 75.0 °F 46.0 °F 36% 29.85 in 10.0 mi ENE 8.1 mph - N/A   Clear
10:56 AM 79.0 °F 50.0 °F 36% 29.83 in 10.0 mi East 6.9 mph - N/A   Clear
11:56 AM 82.0 °F 52.0 °F 35% 29.81 in 10.0 mi Variable 4.6 mph - N/A   Clear
12:56 PM 87.1 °F 51.1 °F 29% 29.77 in 10.0 mi East 6.9 mph - N/A   Clear
1:56 PM 89.1 °F 48.9 °F 25% 29.74 in 10.0 mi East 9.2 mph - N/A   Clear
2:56 PM 93.0 °F 46.9 °F 20% 29.70 in 10.0 mi ENE 10.4 mph - N/A   Clear
3:56 PM 93.9 °F 43.0 °F 17% 29.68 in 10.0 mi East 10.4 mph - N/A   Clear
4:56 PM 95.0 °F 42.1 °F 16% 29.64 in 10.0 mi ENE 9.2 mph 17.3 mph N/A   Clear
5:56 PM 93.0 °F 39.0 °F 15% 29.62 in 10.0 mi NE 8.1 mph - N/A   Clear
6:56 PM 91.9 °F 39.9 °F 16% 29.61 in 10.0 mi NNE 6.9 mph - N/A   Clear
7:56 PM 90.0 °F 43.0 °F 19% 29.60 in 10.0 mi NE 3.5 mph - N/A   Clear
8:56 PM 82.0 °F 52.0 °F 35% 29.59 in 10.0 mi SE 4.6 mph - N/A   Clear
9:56 PM 79.0 °F 52.0 °F 39% 29.59 in 10.0 mi SSE 3.5 mph - N/A   Clear
10:56 PM 81.0 °F 44.1 °F 27% 29.57 in 10.0 mi Calm Calm - N/A   Clear
11:56 PM 73.9 °F 48.0 °F 40% 29.57 in 10.0 mi WSW 6.9 mph - N/A   Clear